,,,PA_Meas_PMT16A,,PR_Meas_QMR101_102,,RH_Meas_QMH101,,SR_Meas_QMS101,,TA_Meas_QMH101,,GenWind,,GenWind,
date,time,status,PA,status,PR,status,RH,status,SR,status,TA,status,DirAvg,status,SpdAvg,
2011-04-05, 00:00:04,VALID,1000.82,VALID,0,VALID,91.0748,VALID,0,VALID,25.0479,VALID,57,VALID,0.448828,
2011-04-05, 00:01:04,VALID,1000.81,VALID,0,VALID,91.0824,VALID,0,VALID,25.0265,VALID,57,VALID,0.555078,
2011-04-05, 00:02:04,VALID,1000.82,VALID,0,VALID,91.0595,VALID,0,VALID,25.0069,VALID,57,VALID,0.610937,
2011-04-05, 00:03:04,VALID,1000.83,VALID,0,VALID,91.0671,VALID,0,VALID,25.0088,VALID,57,VALID,0.587891,
2011-04-05, 00:04:04,VALID,1000.84,VALID,0,VALID,91.0824,VALID,0,VALID,24.9893,VALID,57,VALID,0.523438,
2011-04-05, 00:05:04,VALID,1000.86,VALID,0,VALID,91.1129,VALID,0,VALID,24.9698,VALID,57,VALID,0.450391,
2011-04-05, 00:06:04,VALID,1000.82,VALID,0,VALID,91.1282,VALID,0,VALID,24.9698,VALID,57,VALID,0.444922,
2011-04-05, 00:07:04,VALID,1000.84,VALID,0,VALID,91.1282,VALID,0,VALID,24.9503,VALID,57,VALID,0.242188,
2011-04-05, 00:08:04,VALID,1000.82,VALID,0,VALID,91.1511,VALID,0,VALID,24.9308,VALID,57,VALID,0.259766,
2011-04-05, 00:09:04,VALID,1000.84,VALID,0,VALID,91.1968,VALID,0,VALID,24.9308,VALID,57,VALID,0.34375,
2011-04-05, 00:10:04,VALID,1000.85,VALID,0,VALID,91.1892,VALID,0,VALID,24.8898,VALID,57,VALID,0.373828,
2011-04-05, 00:11:04,VALID,1000.86,VALID,0,VALID,91.2426,VALID,0,VALID,24.9112,VALID,57,VALID,0.474609,
2011-04-05, 00:12:04,VALID,1000.86,VALID,0,VALID,91.2503,VALID,0,VALID,24.8898,VALID,57,VALID,0.533984,
2011-04-05, 00:13:04,VALID,1000.83,VALID,0,VALID,91.2731,VALID,0,VALID,24.8703,VALID,57,VALID,0.566797,
2011-04-05, 00:14:04,VALID,1000.84,VALID,0,VALID,91.296,VALID,0,VALID,24.8917,VALID,57,VALID,0.546875,
2011-04-05, 00:15:04,VALID,1000.84,VALID,0,VALID,91.3266,VALID,0,VALID,24.8917,VALID,57,VALID,0.33125,
2011-04-05, 00:16:04,VALID,1000.85,VALID,0,VALID,91.3418,VALID,0,VALID,24.8703,VALID,57,VALID,0.511328,
2011-04-05, 00:17:04,VALID,1000.82,VALID,0,VALID,91.4028,VALID,0,VALID,24.8917,VALID,57,VALID,0.301172,
2011-04-05, 00:18:04,VALID,1000.82,VALID,0,VALID,91.4257,VALID,0,VALID,24.8898,VALID,57,VALID,0.367578,
2011-04-05, 00:19:04,VALID,1000.8,VALID,0,VALID,91.4334,VALID,0,VALID,24.9112,VALID,57,VALID,0.315234,
2011-04-05, 00:20:04,VALID,1000.78,VALID,0,VALID,91.4486,VALID,0,VALID,24.9308,VALID,58,VALID,0.369141,
2011-04-05, 00:21:04,VALID,1000.81,VALID,0,VALID,91.4486,VALID,0,VALID,24.9308,VALID,91,VALID,0.378906,
2011-04-05, 00:22:04,VALID,1000.8,VALID,0,VALID,91.4715,VALID,0,VALID,24.9503,VALID,91,VALID,0.372656,
2011-04-05, 00:23:04,VALID,1000.82,VALID,0,VALID,91.4639,VALID,0,VALID,24.9893,VALID,91,VALID,0.509766,
2011-04-05, 00:24:04,VALID,1000.81,VALID,0,VALID,91.4715,VALID,0,VALID,24.9484,VALID,91,VALID,0.540625,
2011-04-05, 00:25:04,VALID,1000.79,VALID,0,VALID,91.4715,VALID,0,VALID,24.9893,VALID,91,VALID,0.393359,
2011-04-05, 00:26:04,VALID,1000.8,VALID,0,VALID,91.4639,VALID,0,VALID,25.0088,VALID,59,VALID,0.653125,
2011-04-05, 00:27:04,VALID,1000.82,VALID,0,VALID,91.4486,VALID,0,VALID,25.0088,VALID,59,VALID,0.882422,
2011-04-05, 00:28:04,VALID,1000.8,VALID,0,VALID,91.4181,VALID,0,VALID,24.9679,VALID,59,VALID,0.976953,
2011-04-05, 00:29:04,VALID,1000.8,VALID,0,VALID,91.3723,VALID,0,VALID,24.9893,VALID,59,VALID,0.777734,
2011-04-05, 00:30:04,VALID,1000.82,VALID,0,VALID,91.3266,VALID,0,VALID,24.9698,VALID,59,VALID,0.716016,
2011-04-05, 00:31:04,VALID,1000.79,VALID,0,VALID,91.2731,VALID,0,VALID,24.9698,VALID,59,VALID,0.489844,
2011-04-05, 00:32:04,VALID,1000.79,VALID,0,VALID,91.2579,VALID,0,VALID,24.9698,VALID,59,VALID,0.430469,
2011-04-05, 00:33:04,VALID,1000.78,VALID,0,VALID,91.2503,VALID,0,VALID,24.9484,VALID,59,VALID,0.467187,
2011-04-05, 00:34:04,VALID,1000.75,VALID,0,VALID,91.2274,VALID,0,VALID,24.9503,VALID,59,VALID,0.382813,
2011-04-05, 00:35:04,VALID,1000.72,VALID,0,VALID,91.2197,VALID,0,VALID,24.9698,VALID,59,VALID,0.302344,
2011-04-05, 00:36:04,VALID,1000.7,VALID,0,VALID,91.2426,VALID,0,VALID,24.9308,VALID,59,VALID,0.39375,
2011-04-05, 00:37:04,VALID,1000.67,VALID,0,VALID,91.2274,VALID,0,VALID,24.9093,VALID,59,VALID,0.466016,
2011-04-05, 00:38:04,VALID,1000.68,VALID,0,VALID,91.235,VALID,0,VALID,24.8917,VALID,59,VALID,0.478906,
2011-04-05, 00:39:04,VALID,1000.68,VALID,0,VALID,91.2197,VALID,0,VALID,24.8722,VALID,59,VALID,0.604297,
2011-04-05, 00:40:04,VALID,1000.65,VALID,0,VALID,91.2121,VALID,0,VALID,24.8527,VALID,59,VALID,0.673828,
2011-04-05, 00:41:04,VALID,1000.63,VALID,0,VALID,91.174,VALID,0,VALID,24.8332,VALID,59,VALID,0.723047,
2011-04-05, 00:42:04,VALID,1000.6,VALID,0,VALID,91.1358,VALID,0,VALID,24.8136,VALID,59,VALID,0.530859,
2011-04-05, 00:43:04,VALID,1000.6,VALID,0,VALID,91.1434,VALID,0,VALID,24.8136,VALID,59,VALID,0.597656,
2011-04-05, 00:44:04,VALID,1000.56,VALID,0,VALID,91.1358,VALID,0,VALID,24.7941,VALID,59,VALID,0.501172,
2011-04-05, 00:45:04,VALID,1000.58,VALID,0,VALID,91.1282,VALID,0,VALID,24.7941,VALID,59,VALID,0.664844,
2011-04-05, 00:46:04,VALID,1000.59,VALID,0,VALID,91.09,VALID,0,VALID,24.7746,VALID,59,VALID,0.7625,
2011-04-05, 00:47:04,VALID,1000.58,VALID,0,VALID,91.0214,VALID,0,VALID,24.7746,VALID,59,VALID,0.860547,
2011-04-05, 00:48:04,VALID,1000.62,VALID,0,VALID,90.9527,VALID,0,VALID,24.7746,VALID,59,VALID,0.764844,
2011-04-05, 00:49:04,VALID,1000.6,VALID,0,VALID,90.9222,VALID,0,VALID,24.7746,VALID,59,VALID,0.481641,
2011-04-05, 00:50:04,VALID,1000.61,VALID,0,VALID,90.9451,VALID,0,VALID,24.7941,VALID,59,VALID,0.0449219,
2011-04-05, 00:51:04,VALID,1000.6,VALID,0,VALID,90.968,VALID,0,VALID,24.7727,VALID,59,VALID,0.275391,
2011-04-05, 00:52:04,VALID,1000.58,VALID,0,VALID,90.9527,VALID,0,VALID,24.7922,VALID,59,VALID,0.166016,
2011-04-05, 00:53:04,VALID,1000.59,VALID,0,VALID,90.9603,VALID,0,VALID,24.7941,VALID,59,VALID,0,
2011-04-05, 00:54:04,VALID,1000.55,VALID,0,VALID,90.9222,VALID,0,VALID,24.7727,VALID,59,VALID,0,
2011-04-05, 00:55:04,VALID,1000.57,VALID,0,VALID,90.8993,VALID,0,VALID,24.7922,VALID,59,VALID,0,
2011-04-05, 00:56:04,VALID,1000.52,VALID,0,VALID,90.8688,VALID,0,VALID,24.7941,VALID,59,VALID,0,
2011-04-05, 00:57:04,VALID,1000.5,VALID,0,VALID,90.8993,VALID,0,VALID,24.8136,VALID,59,VALID,0,
2011-04-05, 00:58:04,VALID,1000.5,VALID,0,VALID,90.9374,VALID,0,VALID,24.8332,VALID,59,VALID,0.117188,
2011-04-05, 00:59:04,VALID,1000.48,VALID,0,VALID,90.9451,VALID,0,VALID,24.8332,VALID,59,VALID,0.475391,
2011-04-05, 01:00:04,VALID,1000.53,VALID,0,VALID,90.9298,VALID,0,VALID,24.8722,VALID,59,VALID,0.00195313,
2011-04-05, 01:01:04,VALID,1000.49,VALID,0,VALID,90.9603,VALID,0,VALID,24.8917,VALID,59,VALID,0,
2011-04-05, 01:02:04,VALID,1000.49,VALID,0,VALID,90.9756,VALID,0,VALID,24.9093,VALID,59,VALID,0,
2011-04-05, 01:03:04,VALID,1000.42,VALID,0,VALID,90.9985,VALID,0,VALID,24.9289,VALID,59,VALID,0,
2011-04-05, 01:04:04,VALID,1000.42,VALID,0,VALID,90.9298,VALID,0,VALID,24.9308,VALID,59,VALID,0,
2011-04-05, 01:05:04,VALID,1000.39,VALID,0,VALID,90.8383,VALID,0,VALID,24.9308,VALID,59,VALID,0,
2011-04-05, 01:06:04,VALID,1000.36,VALID,0,VALID,90.762,VALID,0,VALID,24.9308,VALID,59,VALID,0,
2011-04-05, 01:07:04,VALID,1000.35,VALID,0,VALID,90.7238,VALID,0,VALID,24.9503,VALID,59,VALID,0,
2011-04-05, 01:08:04,VALID,1000.34,VALID,0,VALID,90.678,VALID,0,VALID,24.9503,VALID,59,VALID,0,
2011-04-05, 01:09:04,VALID,1000.29,VALID,0,VALID,90.5636,VALID,0,VALID,24.9503,VALID,59,VALID,0,
2011-04-05, 01:10:04,VALID,1000.27,VALID,0,VALID,90.5178,VALID,0,VALID,24.9289,VALID,59,VALID,0,
2011-04-05, 01:11:04,VALID,1000.25,VALID,0,VALID,90.4873,VALID,0,VALID,24.9289,VALID,59,VALID,0.335938,
2011-04-05, 01:12:04,VALID,1000.26,VALID,0,VALID,90.4415,VALID,0,VALID,24.9698,VALID,59,VALID,0.348047,
2011-04-05, 01:13:04,VALID,1000.21,VALID,0,VALID,90.3805,VALID,0,VALID,24.9698,VALID,59,VALID,0.302734,
2011-04-05, 01:14:04,VALID,1000.2,VALID,0,VALID,90.3881,VALID,0,VALID,24.9484,VALID,59,VALID,0.278125,
2011-04-05, 01:15:04,VALID,1000.22,VALID,0,VALID,90.4034,VALID,0,VALID,24.9679,VALID,59,VALID,0.482422,
2011-04-05, 01:16:04,VALID,1000.23,VALID,0,VALID,90.4034,VALID,0,VALID,24.9484,VALID,59,VALID,0.415625,
2011-04-05, 01:17:04,VALID,1000.24,VALID,0,VALID,90.3652,VALID,0,VALID,24.9503,VALID,59,VALID,0.210547,
2011-04-05, 01:18:04,VALID,1000.25,VALID,0,VALID,90.3271,VALID,0,VALID,24.9503,VALID,59,VALID,0,
2011-04-05, 01:19:04,VALID,1000.24,VALID,0,VALID,90.2813,VALID,0,VALID,24.9503,VALID,59,VALID,0,
2011-04-05, 01:20:04,VALID,1000.23,VALID,0,VALID,90.2203,VALID,0,VALID,24.9308,VALID,59,VALID,0,
2011-04-05, 01:21:04,VALID,1000.24,VALID,0,VALID,90.0906,VALID,0,VALID,24.9093,VALID,59,VALID,0,
2011-04-05, 01:22:04,VALID,1000.21,VALID,0,VALID,90.0143,VALID,0,VALID,24.9308,VALID,59,VALID,0,
2011-04-05, 01:23:04,VALID,1000.17,VALID,0,VALID,89.9609,VALID,0,VALID,24.9093,VALID,59,VALID,0,
2011-04-05, 01:24:04,VALID,1000.14,VALID,0,VALID,89.8922,VALID,0,VALID,24.8898,VALID,59,VALID,0,
2011-04-05, 01:25:04,VALID,1000.14,VALID,0,VALID,89.9151,VALID,0,VALID,24.9308,VALID,59,VALID,0,
2011-04-05, 01:26:04,VALID,1000.15,VALID,0,VALID,89.9761,VALID,0,VALID,24.9093,VALID,59,VALID,0,
2011-04-05, 01:27:04,VALID,1000.13,VALID,0,VALID,89.9685,VALID,0,VALID,24.9308,VALID,59,VALID,0,
2011-04-05, 01:28:04,VALID,1000.1,VALID,0,VALID,89.9303,VALID,0,VALID,24.9112,VALID,59,VALID,0,
2011-04-05, 01:29:04,VALID,1000.08,VALID,0,VALID,89.9303,VALID,0,VALID,24.9093,VALID,59,VALID,0,
2011-04-05, 01:30:04,VALID,1000.06,VALID,0,VALID,89.8998,VALID,0,VALID,24.9112,VALID,59,VALID,0,
2011-04-05, 01:31:04,VALID,1000.04,VALID,0,VALID,89.9151,VALID,0,VALID,24.8917,VALID,59,VALID,0,
2011-04-05, 01:32:04,VALID,1000.06,VALID,0,VALID,89.9532,VALID,0,VALID,24.8703,VALID,59,VALID,0,
2011-04-05, 01:33:04,VALID,1000.04,VALID,0,VALID,89.9685,VALID,0,VALID,24.8722,VALID,59,VALID,0,
2011-04-05, 01:34:04,VALID,1000.03,VALID,0,VALID,90.0066,VALID,0,VALID,24.8508,VALID,59,VALID,0,
2011-04-05, 01:35:04,VALID,1000.03,VALID,0,VALID,90.0219,VALID,0,VALID,24.8527,VALID,59,VALID,0,
2011-04-05, 01:36:04,VALID,999.997,VALID,0,VALID,90.0143,VALID,0,VALID,24.8332,VALID,59,VALID,0,
2011-04-05, 01:37:04,VALID,999.97,VALID,0,VALID,89.9837,VALID,0,VALID,24.8332,VALID,59,VALID,0,
2011-04-05, 01:38:04,VALID,999.955,VALID,0,VALID,89.9456,VALID,0,VALID,24.8117,VALID,59,VALID,0,
2011-04-05, 01:39:04,VALID,999.953,VALID,0,VALID,89.9151,VALID,0,VALID,24.7941,VALID,59,VALID,0,
2011-04-05, 01:40:04,VALID,999.933,VALID,0,VALID,89.8769,VALID,0,VALID,24.8136,VALID,59,VALID,0,
2011-04-05, 01:41:04,VALID,999.909,VALID,0,VALID,89.8693,VALID,0,VALID,24.7941,VALID,59,VALID,0,
2011-04-05, 01:42:04,VALID,999.904,VALID,0,VALID,89.8693,VALID,0,VALID,24.7941,VALID,59,VALID,0,
2011-04-05, 01:43:04,VALID,999.851,VALID,0,VALID,89.8617,VALID,0,VALID,24.7727,VALID,59,VALID,0,
2011-04-05, 01:44:04,VALID,999.798,VALID,0,VALID,89.8998,VALID,0,VALID,24.7551,VALID,59,VALID,0,
2011-04-05, 01:45:04,VALID,999.821,VALID,0,VALID,89.9227,VALID,0,VALID,24.7356,VALID,59,VALID,0,
2011-04-05, 01:46:04,VALID,999.763,VALID,0,VALID,89.9761,VALID,0,VALID,24.7356,VALID,59,VALID,0,
2011-04-05, 01:47:04,VALID,999.759,VALID,0,VALID,90.0371,VALID,0,VALID,24.6946,VALID,59,VALID,0,
2011-04-05, 01:48:04,VALID,999.755,VALID,0,VALID,90.1287,VALID,0,VALID,24.716,VALID,59,VALID,0,
2011-04-05, 01:49:04,VALID,999.76,VALID,0,VALID,90.2203,VALID,0,VALID,24.6965,VALID,59,VALID,0,
2011-04-05, 01:50:04,VALID,999.756,VALID,0,VALID,90.3347,VALID,0,VALID,24.6965,VALID,59,VALID,0,
2011-04-05, 01:51:04,VALID,999.751,VALID,0,VALID,90.4873,VALID,0,VALID,24.6965,VALID,59,VALID,0,
2011-04-05, 01:52:04,VALID,999.703,VALID,0,VALID,90.6323,VALID,0,VALID,24.6965,VALID,59,VALID,0,
2011-04-05, 01:53:04,VALID,999.737,VALID,0,VALID,90.7543,VALID,0,VALID,24.6965,VALID,59,VALID,0,
2011-04-05, 01:54:04,VALID,999.683,VALID,0,VALID,90.8306,VALID,0,VALID,24.677,VALID,59,VALID,0,
2011-04-05, 01:55:04,VALID,999.669,VALID,0,VALID,90.9298,VALID,0,VALID,24.6556,VALID,59,VALID,0,
2011-04-05, 01:56:04,VALID,999.647,VALID,0,VALID,91.0061,VALID,0,VALID,24.6965,VALID,59,VALID,0,
2011-04-05, 01:57:04,VALID,999.604,VALID,0,VALID,91.029,VALID,0,VALID,24.6575,VALID,59,VALID,0,
2011-04-05, 01:58:04,VALID,999.579,VALID,0,VALID,91.0519,VALID,0,VALID,24.638,VALID,59,VALID,0,
2011-04-05, 01:59:04,VALID,999.552,VALID,0,VALID,91.09,VALID,0,VALID,24.5971,VALID,59,VALID,0,
2011-04-05, 02:00:04,VALID,999.55,VALID,0,VALID,91.1282,VALID,0,VALID,24.5989,VALID,59,VALID,0,
2011-04-05, 02:01:04,VALID,999.551,VALID,0,VALID,91.174,VALID,0,VALID,24.5989,VALID,59,VALID,0,
2011-04-05, 02:02:04,VALID,999.564,VALID,0,VALID,91.2426,VALID,0,VALID,24.5989,VALID,59,VALID,0,
2011-04-05, 02:03:04,VALID,999.57,VALID,0,VALID,91.296,VALID,0,VALID,24.5989,VALID,59,VALID,0,
2011-04-05, 02:04:04,VALID,999.573,VALID,0,VALID,91.3266,VALID,0,VALID,24.5385,VALID,59,VALID,0,
2011-04-05, 02:05:04,VALID,999.575,VALID,0,VALID,91.3342,VALID,0,VALID,24.5385,VALID,59,VALID,0,
2011-04-05, 02:06:04,VALID,999.585,VALID,0,VALID,91.3266,VALID,0,VALID,24.5404,VALID,59,VALID,0,
2011-04-05, 02:07:04,VALID,999.556,VALID,0,VALID,91.3876,VALID,0,VALID,24.5209,VALID,59,VALID,0,
2011-04-05, 02:08:04,VALID,999.551,VALID,0,VALID,91.4486,VALID,0,VALID,24.5209,VALID,59,VALID,0,
2011-04-05, 02:09:04,VALID,999.541,VALID,0,VALID,91.4791,VALID,0,VALID,24.5209,VALID,59,VALID,0,
2011-04-05, 02:10:04,VALID,999.595,VALID,0,VALID,91.502,VALID,0,VALID,24.4995,VALID,59,VALID,0,
2011-04-05, 02:11:04,VALID,999.59,VALID,0,VALID,91.5249,VALID,0,VALID,24.5013,VALID,59,VALID,0,
2011-04-05, 02:12:04,VALID,999.573,VALID,0,VALID,91.5631,VALID,0,VALID,24.5013,VALID,59,VALID,0,
2011-04-05, 02:13:04,VALID,999.571,VALID,0,VALID,91.5326,VALID,0,VALID,24.5013,VALID,59,VALID,0,
2011-04-05, 02:14:04,VALID,999.562,VALID,0,VALID,91.586,VALID,0,VALID,24.4604,VALID,59,VALID,0,
2011-04-05, 02:15:04,VALID,999.555,VALID,0,VALID,91.5631,VALID,0,VALID,24.5013,VALID,59,VALID,0,
2011-04-05, 02:16:04,VALID,999.552,VALID,0,VALID,91.5631,VALID,0,VALID,24.4623,VALID,59,VALID,0,
2011-04-05, 02:17:04,VALID,999.574,VALID,0,VALID,91.586,VALID,0,VALID,24.4428,VALID,59,VALID,0,
2011-04-05, 02:18:04,VALID,999.613,VALID,0,VALID,91.5554,VALID,0,VALID,24.4428,VALID,59,VALID,0,
2011-04-05, 02:19:04,VALID,999.565,VALID,0,VALID,91.5554,VALID,0,VALID,24.4428,VALID,59,VALID,0,
2011-04-05, 02:20:04,VALID,999.61,VALID,0,VALID,91.5707,VALID,0,VALID,24.4428,VALID,59,VALID,0,
2011-04-05, 02:21:04,VALID,999.56,VALID,0,VALID,91.5783,VALID,0,VALID,24.4428,VALID,59,VALID,0,
2011-04-05, 02:22:04,VALID,999.587,VALID,0,VALID,91.586,VALID,0,VALID,24.4428,VALID,59,VALID,0,
2011-04-05, 02:23:04,VALID,999.579,VALID,0,VALID,91.5783,VALID,0,VALID,24.4428,VALID,59,VALID,0,
2011-04-05, 02:24:04,VALID,999.599,VALID,0,VALID,91.5707,VALID,0,VALID,24.4233,VALID,59,VALID,0,
2011-04-05, 02:25:04,VALID,999.639,VALID,0,VALID,91.5554,VALID,0,VALID,24.3824,VALID,59,VALID,0,
2011-04-05, 02:26:04,VALID,999.598,VALID,0,VALID,91.6241,VALID,0,VALID,24.4409,VALID,59,VALID,0,
2011-04-05, 02:27:04,VALID,999.604,VALID,0,VALID,91.6775,VALID,0,VALID,24.4604,VALID,59,VALID,0,
2011-04-05, 02:28:04,VALID,999.593,VALID,0,VALID,91.708,VALID,0,VALID,24.4818,VALID,59,VALID,0,
2011-04-05, 02:29:04,VALID,999.585,VALID,0,VALID,91.708,VALID,0,VALID,24.4818,VALID,59,VALID,0,
2011-04-05, 02:30:04,VALID,999.601,VALID,0,VALID,91.7157,VALID,0,VALID,24.4818,VALID,59,VALID,0,
2011-04-05, 02:31:04,VALID,999.596,VALID,0,VALID,91.6928,VALID,0,VALID,24.4818,VALID,59,VALID,0,
2011-04-05, 02:32:04,VALID,999.609,VALID,0,VALID,91.6851,VALID,0,VALID,24.5013,VALID,59,VALID,0,
2011-04-05, 02:33:04,VALID,999.629,VALID,0,VALID,91.6928,VALID,0,VALID,24.5013,VALID,59,VALID,0,
2011-04-05, 02:34:04,VALID,999.652,VALID,0,VALID,91.6623,VALID,0,VALID,24.4604,VALID,59,VALID,0,
2011-04-05, 02:35:04,VALID,999.643,VALID,0,VALID,91.6775,VALID,0,VALID,24.5013,VALID,59,VALID,0,
2011-04-05, 02:36:04,VALID,999.604,VALID,0,VALID,91.6928,VALID,0,VALID,24.4995,VALID,59,VALID,0,
2011-04-05, 02:37:04,VALID,999.648,VALID,0,VALID,91.6928,VALID,0,VALID,24.5013,VALID,59,VALID,0,
2011-04-05, 02:38:04,VALID,999.632,VALID,0,VALID,91.6851,VALID,0,VALID,24.48,VALID,59,VALID,0,
2011-04-05, 02:39:04,VALID,999.633,VALID,0,VALID,91.6851,VALID,0,VALID,24.4818,VALID,59,VALID,0,
2011-04-05, 02:40:04,VALID,999.605,VALID,0,VALID,91.6851,VALID,0,VALID,24.48,VALID,59,VALID,0,
2011-04-05, 02:41:04,VALID,999.605,VALID,0,VALID,91.6851,VALID,0,VALID,24.48,VALID,59,VALID,0,
2011-04-05, 02:42:04,VALID,999.584,VALID,0,VALID,91.7004,VALID,0,VALID,24.4818,VALID,59,VALID,0,
2011-04-05, 02:43:04,VALID,999.593,VALID,0,VALID,91.708,VALID,0,VALID,24.4604,VALID,59,VALID,0,
2011-04-05, 02:44:04,VALID,999.565,VALID,0,VALID,91.7004,VALID,0,VALID,24.48,VALID,59,VALID,0,
2011-04-05, 02:45:04,VALID,999.597,VALID,0,VALID,91.7233,VALID,0,VALID,24.4604,VALID,59,VALID,0,
2011-04-05, 02:46:04,VALID,999.598,VALID,0,VALID,91.7691,VALID,0,VALID,24.4604,VALID,59,VALID,0,
2011-04-05, 02:47:04,VALID,999.607,VALID,0,VALID,91.7538,VALID,0,VALID,24.4409,VALID,59,VALID,0,
2011-04-05, 02:48:04,VALID,999.626,VALID,0,VALID,91.7843,VALID,0,VALID,24.4623,VALID,59,VALID,0,
2011-04-05, 02:49:04,VALID,999.615,VALID,0,VALID,91.8148,VALID,0,VALID,24.4623,VALID,59,VALID,0,
2011-04-05, 02:50:04,VALID,999.607,VALID,0,VALID,91.8072,VALID,0.112286,VALID,24.4409,VALID,59,VALID,0,
2011-04-05, 02:51:04,VALID,999.627,VALID,0,VALID,91.7996,VALID,0,VALID,24.4037,VALID,59,VALID,0,
2011-04-05, 02:52:04,VALID,999.595,VALID,0,VALID,91.7767,VALID,0,VALID,24.3824,VALID,59,VALID,0,
2011-04-05, 02:53:04,VALID,999.623,VALID,0,VALID,91.7691,VALID,0,VALID,24.3647,VALID,59,VALID,0,
2011-04-05, 02:54:04,VALID,999.607,VALID,0,VALID,91.7614,VALID,0,VALID,24.3433,VALID,59,VALID,0,
2011-04-05, 02:55:04,VALID,999.619,VALID,0,VALID,91.7614,VALID,0,VALID,24.3257,VALID,356,VALID,0,
2011-04-05, 02:56:04,VALID,999.583,VALID,0,VALID,91.7767,VALID,0,VALID,24.3452,VALID,351,VALID,0,
2011-04-05, 02:57:04,VALID,999.624,VALID,0,VALID,91.8148,VALID,0,VALID,24.3647,VALID,351,VALID,0,
2011-04-05, 02:58:04,VALID,999.617,VALID,0,VALID,91.853,VALID,0,VALID,24.3842,VALID,8,VALID,0,
2011-04-05, 02:59:04,VALID,999.631,VALID,0,VALID,91.8454,VALID,0,VALID,24.3238,VALID,23,VALID,0,
2011-04-05, 03:00:04,VALID,999.638,VALID,0,VALID,91.8225,VALID,0,VALID,24.3257,VALID,32,VALID,0,
2011-04-05, 03:01:04,VALID,999.649,VALID,0,VALID,91.7843,VALID,0,VALID,24.2848,VALID,43,VALID,0,
2011-04-05, 03:02:04,VALID,999.673,VALID,0,VALID,91.8148,VALID,0,VALID,24.2866,VALID,43,VALID,0,
2011-04-05, 03:03:04,VALID,999.685,VALID,0,VALID,91.8301,VALID,0,VALID,24.2653,VALID,43,VALID,0,
2011-04-05, 03:04:04,VALID,999.705,VALID,0,VALID,91.8377,VALID,0,VALID,24.2458,VALID,43,VALID,0,
2011-04-05, 03:05:04,VALID,999.689,VALID,0,VALID,91.853,VALID,0,VALID,24.2458,VALID,43,VALID,0,
2011-04-05, 03:06:04,VALID,999.685,VALID,0,VALID,91.8911,VALID,0,VALID,24.2476,VALID,43,VALID,0,
2011-04-05, 03:07:04,VALID,999.698,VALID,0,VALID,91.9293,VALID,0,VALID,24.2653,VALID,43,VALID,0,
2011-04-05, 03:08:04,VALID,999.686,VALID,0,VALID,91.9598,VALID,0,VALID,24.2653,VALID,43,VALID,0,
2011-04-05, 03:09:04,VALID,999.709,VALID,0,VALID,91.9903,VALID,0,VALID,24.2653,VALID,51,VALID,0,
2011-04-05, 03:10:04,VALID,999.714,VALID,0,VALID,91.9751,VALID,0,VALID,24.2671,VALID,51,VALID,0,
2011-04-05, 03:11:04,VALID,999.692,VALID,0,VALID,91.9827,VALID,0,VALID,24.2476,VALID,51,VALID,0,
2011-04-05, 03:12:04,VALID,999.7,VALID,0,VALID,91.998,VALID,0.112286,VALID,24.2458,VALID,51,VALID,0,
2011-04-05, 03:13:04,VALID,999.701,VALID,0,VALID,92.0056,VALID,0,VALID,24.2263,VALID,51,VALID,0,
2011-04-05, 03:14:04,VALID,999.679,VALID,0,VALID,91.9903,VALID,0,VALID,24.1872,VALID,51,VALID,0,
2011-04-05, 03:15:04,VALID,999.677,VALID,0,VALID,92.0056,VALID,0,VALID,24.2281,VALID,50,VALID,0,
2011-04-05, 03:16:04,VALID,999.71,VALID,0,VALID,92.0285,VALID,0,VALID,24.1872,VALID,49,VALID,0,
2011-04-05, 03:17:04,VALID,999.69,VALID,0,VALID,92.059,VALID,0,VALID,24.2476,VALID,48,VALID,0,
2011-04-05, 03:18:04,VALID,999.717,VALID,0,VALID,92.0743,VALID,0,VALID,24.2476,VALID,48,VALID,0,
2011-04-05, 03:19:04,VALID,999.725,VALID,0,VALID,92.1124,VALID,0,VALID,24.2263,VALID,48,VALID,0,
2011-04-05, 03:20:04,VALID,999.734,VALID,0,VALID,92.1429,VALID,0,VALID,24.2458,VALID,48,VALID,0,
2011-04-05, 03:21:04,VALID,999.763,VALID,0,VALID,92.1429,VALID,0,VALID,24.2653,VALID,48,VALID,0,
2011-04-05, 03:22:04,VALID,999.764,VALID,0,VALID,92.1963,VALID,0,VALID,24.2866,VALID,48,VALID,0,
2011-04-05, 03:23:04,VALID,999.763,VALID,0,VALID,92.1811,VALID,0,VALID,24.2671,VALID,48,VALID,0,
2011-04-05, 03:24:04,VALID,999.778,VALID,0,VALID,92.1734,VALID,0,VALID,24.2476,VALID,48,VALID,0,
2011-04-05, 03:25:04,VALID,999.762,VALID,0,VALID,92.1811,VALID,0,VALID,24.2671,VALID,48,VALID,0,
2011-04-05, 03:26:04,VALID,999.807,VALID,0,VALID,92.2116,VALID,0,VALID,24.2866,VALID,48,VALID,0,
2011-04-05, 03:27:04,VALID,999.782,VALID,0,VALID,92.2268,VALID,0,VALID,24.2848,VALID,48,VALID,0,
2011-04-05, 03:28:04,VALID,999.821,VALID,0,VALID,92.2497,VALID,0,VALID,24.3062,VALID,48,VALID,0,
2011-04-05, 03:29:04,VALID,999.794,VALID,0,VALID,92.265,VALID,0,VALID,24.3062,VALID,48,VALID,0,
2011-04-05, 03:30:04,VALID,999.788,VALID,0,VALID,92.265,VALID,0,VALID,24.3257,VALID,48,VALID,0,
2011-04-05, 03:31:04,VALID,999.79,VALID,0,VALID,92.2497,VALID,0,VALID,24.3257,VALID,48,VALID,0,
2011-04-05, 03:32:04,VALID,999.805,VALID,0,VALID,92.2421,VALID,0,VALID,24.3043,VALID,48,VALID,0,
2011-04-05, 03:33:04,VALID,999.781,VALID,0,VALID,92.2421,VALID,0,VALID,24.3043,VALID,48,VALID,0,
2011-04-05, 03:34:04,VALID,999.781,VALID,0,VALID,92.2574,VALID,0,VALID,24.3257,VALID,48,VALID,0,
2011-04-05, 03:35:04,VALID,999.817,VALID,0,VALID,92.2421,VALID,0,VALID,24.3062,VALID,48,VALID,0,
2011-04-05, 03:36:04,VALID,999.801,VALID,0,VALID,92.2345,VALID,0,VALID,24.2866,VALID,48,VALID,0,
2011-04-05, 03:37:04,VALID,999.8,VALID,0,VALID,92.1811,VALID,0,VALID,24.2281,VALID,48,VALID,0,
2011-04-05, 03:38:04,VALID,999.828,VALID,0,VALID,92.1658,VALID,0,VALID,24.2086,VALID,48,VALID,0,
2011-04-05, 03:39:04,VALID,999.84,VALID,0,VALID,92.1506,VALID,0,VALID,24.1872,VALID,48,VALID,0,
2011-04-05, 03:40:04,VALID,999.844,VALID,0,VALID,92.1582,VALID,0,VALID,24.1482,VALID,48,VALID,0,
2011-04-05, 03:41:04,VALID,999.845,VALID,0,VALID,92.1734,VALID,0,VALID,24.1696,VALID,48,VALID,0,
2011-04-05, 03:42:04,VALID,999.857,VALID,0,VALID,92.1887,VALID,0,VALID,24.1891,VALID,50,VALID,0,
2011-04-05, 03:43:04,VALID,999.847,VALID,0,VALID,92.2726,VALID,0,VALID,24.2671,VALID,53,VALID,0,
2011-04-05, 03:44:04,VALID,999.872,VALID,0,VALID,92.2879,VALID,0,VALID,24.2653,VALID,53,VALID,0,
2011-04-05, 03:45:04,VALID,999.874,VALID,0,VALID,92.2345,VALID,0,VALID,24.2476,VALID,53,VALID,0,
2011-04-05, 03:46:04,VALID,999.883,VALID,0,VALID,92.204,VALID,0,VALID,24.1696,VALID,47,VALID,0,
2011-04-05, 03:47:04,VALID,999.883,VALID,0,VALID,92.1429,VALID,0,VALID,24.1305,VALID,16,VALID,0,
2011-04-05, 03:48:04,VALID,999.941,VALID,0,VALID,92.1048,VALID,0,VALID,24.072,VALID,14,VALID,0,
2011-04-05, 03:49:04,VALID,999.964,VALID,0,VALID,92.1124,VALID,0,VALID,24.111,VALID,7,VALID,0,
2011-04-05, 03:50:04,VALID,999.984,VALID,0,VALID,92.1506,VALID,0,VALID,24.1287,VALID,7,VALID,0,
2011-04-05, 03:51:04,VALID,1000,VALID,0,VALID,92.1734,VALID,0,VALID,24.1482,VALID,7,VALID,0,
2011-04-05, 03:52:04,VALID,999.994,VALID,0,VALID,92.204,VALID,0,VALID,24.1696,VALID,7,VALID,0,
2011-04-05, 03:53:04,VALID,999.991,VALID,0,VALID,92.2116,VALID,0,VALID,24.1677,VALID,7,VALID,0,
2011-04-05, 03:54:04,VALID,1000.03,VALID,0,VALID,92.2268,VALID,0,VALID,24.1696,VALID,7,VALID,0,
2011-04-05, 03:55:04,VALID,1000.03,VALID,0,VALID,92.2421,VALID,0,VALID,24.15,VALID,7,VALID,0,
2011-04-05, 03:56:04,VALID,1000.01,VALID,0,VALID,92.2574,VALID,0,VALID,24.1696,VALID,7,VALID,0,
2011-04-05, 03:57:04,VALID,1000.04,VALID,0,VALID,92.2421,VALID,0,VALID,24.1677,VALID,7,VALID,0,
2011-04-05, 03:58:04,VALID,1000.03,VALID,0,VALID,92.265,VALID,0,VALID,24.1677,VALID,7,VALID,0,